This is the latest recevied weather packets stored in our database for station/object N4QD-13. If no packets are shown the sender has not sent any weather packets the latest 10 day(s).
| Time | Temp. | Humidity | Pressure | Rain* | Wind** | Luminosity | Snow |
|---|---|---|---|---|---|---|---|
| 1777161943 | 13.89° C | 99% | 1012.1 hPa | 3.05 mm | - | 0 W/m² | - |
| 1777161639 | 13.89° C | 99% | 1012.1 hPa | 1.27 mm | - | 0 W/m² | - |
| 1777161336 | 14.44° C | 99% | 1012.1 hPa | 0 mm | - | 0 W/m² | - |
| 1777161033 | 14.44° C | 99% | 1011.9 hPa | 1.78 mm | - | 0 W/m² | - |
| 1777160729 | 14.44° C | 99% | 1011.9 hPa | 4.83 mm | - | 1 W/m² | - |
| 1777160423 | 14.44° C | 99% | 1011.6 hPa | 6.1 mm | - | 1 W/m² | - |
| 1777160120 | 14.44° C | 99% | 1011.6 hPa | 6.1 mm | - | 0 W/m² | - |
| 1777159816 | 14.44° C | 99% | 1011.6 hPa | 4.32 mm | - | 0 W/m² | - |
| 1777159512 | 14.44° C | 99% | 1011.8 hPa | 1.27 mm | - | 0 W/m² | - |
| 1777159209 | 14.44° C | 99% | 1011.6 hPa | 0 mm | - | 1 W/m² | - |
| 1777158905 | 14.44° C | 99% | 1011.4 hPa | 0 mm | - | 4 W/m² | - |
| 1777158603 | 14.44° C | 99% | 1011.3 hPa | 0 mm | - | 10 W/m² | - |
| 1777158299 | 15° C | 99% | 1011.1 hPa | 0 mm | - | 11 W/m² | - |
| 1777157996 | 15° C | 99% | 1011.5 hPa | 0 mm | - | 14 W/m² | - |
| 1777157692 | 15° C | 99% | 1011.1 hPa | 0 mm | - | 19 W/m² | - |
| 1777157388 | 14.44° C | 99% | 1011.3 hPa | 0 mm | - | 17 W/m² | - |
| 1777157084 | 14.44° C | 99% | 1011.3 hPa | 0 mm | - | 21 W/m² | - |
| 1777156779 | 14.44° C | 99% | 1011.2 hPa | 0 mm | - | 26 W/m² | - |
| 1777156474 | 15° C | 99% | 1011.1 hPa | 0 mm | - | 37 W/m² | - |
| 1777156171 | 15° C | 99% | 1011.1 hPa | 0 mm | - | 52 W/m² | - |
| 1777155867 | 15° C | 99% | 1011 hPa | 0 mm | - | 62 W/m² | - |
| 1777155561 | 15° C | 99% | 1011.2 hPa | 0 mm | - | 60 W/m² | - |
| 1777155260 | 15° C | 99% | 1011 hPa | 0 mm | - | 74 W/m² | - |
| 1777154957 | 15° C | 99% | 1010.9 hPa | 0 mm | - | 88 W/m² | - |
| 1777154654 | 15° C | 99% | 1010.9 hPa | 0 mm | - | 75 W/m² | - |
* Rain latest hour (hover to see other rain measurements)
** Current wind speed in m/s (hover to see current wind gust speed)